Regional Weather Roundup
Issued by NWS Wakefield, VA

Home | Current Version | Previous Version | Graphics & Text | Print | Product List | Glossary On
Versions: 1 2 3 4 5 6 7 8 9 10 11 12 13 14 15 16 17 18 19 20 21 22 23 24 25 26 27 28 29 30 31 32 33 34 35 36 37 38 39 40 41 42 43 44 45 46 47 48 49 50
000
ASUS41 KAKQ 010010
RWRAKQ

REGIONAL WEATHER ROUNDUP
NATIONAL WEATHER SERVICE WAKEFIELD VA
700 PM EST SAT JAN 31 2015

Note: "fair" indicates few or no clouds below 12,000 feet with no
significant weather and/or obstructions to visibility. * = Denotes
station may not report precipitation (e.g., rain,snow,etc.),
thunder or fog.

VAZ042-051-052>054-056-010100-
NORTHERN VIRGINIA

CITY           SKY/WX    TMP DP  RH WIND       PRES   REMARKS
WASH NATIONAL  CLEAR     33  10  38 CALM      30.29S
DULLES         PTCLDY    25  11  55 S3        30.28R
FORT BELVOIR   CLEAR     29  10  45 CALM      30.30R
QUANTICO       CLEAR     29  15  56 W3        30.31R
FREDERICKSBRG* CLEAR     29  11  45 CALM      30.28R
STAFFORD*      CLEAR     26   8  45 CALM      30.33R
WARRENTON      CLEAR     22  17  80 CALM      30.27R
CULPEPER*      CLEAR     25  16  68 CALM      30.28R
MANASSAS*      CLEAR     23  18  80 CALM      30.28S
LEESBURG*      CLEAR     28  16  59 W3        30.28R
WINCHESTER     CLEAR     30   9  40 NW10      30.25S WCI  21
FRONT ROYAL*   FAIR      32   7  34 CALM      30.24R
LURAY*         FAIR      30  12  47 CALM      30.24S
$$

VAZ048-049-060>072-079>083-010100-
CENTRAL AND SOUTH CENTRAL VIRGINIA

CITY           SKY/WX    TMP DP  RH WIND       PRES   REMARKS
RICHMOND       MOCLDY    32  10  40 CALM      30.28R
CHESTERFIELD*  FAIR      28   3  34 CALM      30.29R
PETERSBURG*    CLEAR     28  16  59 CALM      30.29S
HANOVER        CLEAR     27  13  55 CALM      30.29R
TAPPAHANNOCK*  CLEAR     28   6  39 CALM      30.30R
QUINTON*       FAIR      29  10  44 CALM      30.29R
CHARLOTTSVILLE CLEAR     34   2  25 N3        30.24R
GORDONSVILLE*  FAIR      27  12  52 CALM      30.26R
ORANGE*        CLEAR     28  18  64 CALM      30.28R
LOUISA*        CLEAR     27   9  46 CALM      30.25R
BUMPASS*       FAIR      29   6  37 CALM      30.27R
FARMVILLE*     PTCLDY    35   3  26 CALM      30.25R
CREWE*         FAIR      30  15  52 CALM      30.26S
FORT PICKETT*  FAIR      32   9  37 S3        30.27S
CHASE CITY*    FAIR      35  16  45 CALM      30.28R
CLARKSVILLE*   FAIR      34  14  44 CALM      30.28R
SOUTH HILL*    FAIR      33  11  40 SW3       30.34R
LAWRENCEVILLE* FAIR      33  11  39 CALM      30.28S
EMPORIA*       CLEAR     30  18  59 CALM      30.32R
$$

VAZ088>098-010100-
SOUTHEAST VIRGINIA

CITY           SKY/WX    TMP DP  RH WIND       PRES   REMARKS
NORFOLK        CLEAR     31  13  47 CALM      30.30R
VIRGINIA BEACH PTCLDY    30  11  45 SW3       30.30R
NORFOLK NAVAL  CLEAR     35  12  38 CALM      30.31R
WEST POINT*    CLEAR     31  13  47 CALM      30.31R
SALUDA*        FAIR      27  13  55 CALM      30.29S
NEWPORT NEWS   CLEAR     32  13  45 CALM      30.30R
LANGLEY AFB    CLEAR     31  16  54 SW2       30.30R
FORT EUSTIS    CLEAR     30  14  51 S1        30.28R
WILLIAMSBURG*    N/A     32  18  55 SW3       30.31R
HR EXEC AP*    FAIR      25  14  63 CALM      30.32R
FRANKLIN*      CLEAR     29  13  51 CALM      30.31R
WAKEFIELD      CLEAR     29  14  53 CALM      30.30R
$$

VAZ020-022-025-037-045-010100-
WEST CENTRAL AND SOUTHWEST VIRGINIA

CITY           SKY/WX    TMP DP  RH WIND       PRES   REMARKS
STAUNTON*      CLEAR     29  11  46 CALM      30.24S
WAYNESBORO*    FAIR      33   7  33 NW5       30.22R
HOT SPRINGS VA PTCLDY    27  -2  28 W16       30.12R WCI  15
LYNCHBURG      MOCLDY    38   4  24 W6        30.26R
DANVILLE       CLOUDY    37   9  31 CALM      30.28R
SOUTH BOSTON*  FAIR      38   5  25 SW3       30.28R
MARTINSVILLE   MOCLDY    36  11  35 CALM      30.29R
ROANOKE        MOCLDY    41   0  18 NW9       30.27S
BLACKSBURG     PTCLDY    32   8  36 CALM      30.27R
DUBLIN*        PTCLDY    35  13  40 W5        30.26S
MARION*        PTCLDY    34   9  36 W8        30.26S
HILLSVILLE*    PTCLDY    35   2  25 N5        30.23R
RICHLANDS*     FAIR      34   8  33 W6        30.25R
WISE*          MOCLDY    36  14  41 SW5       30.27R
ABINGDON*      MOCLDY    37  11  33 CALM      30.27R
$$

MDZ021>025-VAZ099-100-010100-
SOUTHERN MARYLAND AND THE DELMARVA PENINSULA

CITY           SKY/WX    TMP DP  RH WIND       PRES   REMARKS
PATUXENT RIVER CLEAR     27   6  41 NW5       30.28S
BAY BRIDGE APT   N/A     30   9  40 W6        30.29R
LEONARDTOWN    CLEAR     27   9  46 CALM      30.30S
DOVER          CLEAR     26   9  48 W8        30.27R
GEORGETOWN     CLEAR     28   8  43 W8        30.28R
EASTON         CLEAR     28  12  50 CALM      30.31S
CAMBRIDGE      NOT AVBL
SALISBURY      CLEAR     30   8  39 W5        30.28R
OCEAN CITY     CLEAR     28   8  43 NW8       30.28R
WALLOPS ISLAND CLEAR     27   9  46 NW5       30.30R
ACCOMACK*      CLEAR     30  14  51 NW6       30.29R
$$

NCZ012>017-030>032-010100-
NORTH CENTRAL AND EASTERN NORTH CAROLINA

CITY           SKY/WX    TMP DP  RH WIND       PRES   REMARKS
ROANOKE RAPIDS FAIR      36  14  41 CALM      30.30S
RALEIGH        MOCLDY    38  13  35 CALM      30.30R
ELIZABETH CITY CLEAR     32  16  51 CALM      30.32R
AHOSKIE*       CLEAR     30  15  52 CALM      30.32R
EDENTON*       CLEAR     33  20  58 CALM      30.32S
CURRITUCK*     CLEAR     31  16  54 CALM      30.32R
KILL DEVIL HLS CLEAR     36  18  48 W3        30.30S
MANTEO         CLEAR     36  19  51 W3        30.32S
CAPE HATTERAS  CLEAR     36  20  52 W5        30.34R
TARBORO*       FAIR      31  23  71 CALM      30.33R
GOLDSBORO      CLEAR     35  18  48 CALM      30.31R
WASHINGTON     CLEAR     32  17  54 CALM      30.34R
GREENVILLE     CLEAR     34  18  51 CALM      30.34R
NEW BERN       CLEAR     34  18  52 CALM      30.35R
WILMINGTON     CLEAR     38  24  57 S5        30.35R
$$

VAZ048-010100-
ELSEWHERE

CITY           SKY/WX    TMP DP  RH WIND       PRES   REMARKS
HARRISBURG PA  CLEAR     20   6  55 NW3       30.25R
BALTIMORE      CLEAR     27   7  42 CALM      30.27R
ANNAPOLIS      CLEAR     28   6  39 W3        30.29R
ANDREWS AFB    CLEAR     28   8  42 NW2       30.27R
PHILADELPHIA   PTCLDY    27   6  41 W10       30.25R WCI  17
HENDERSON NC   PTCLDY    36   8  30 CALM      30.29R
GREENSBORO     PTCLDY    43   4  19 CALM      30.27R
ROCKY MOUNT    CLEAR     32  18  56 CALM      30.32R
$$

VAZ100-010100-
MARINE

STATION/POSITION TIME  TEMP    WIND        PRES    WAVE   SWELL
                       AIR SEA DIR/SP/G            HT/PER HT/PER
                 (UTC) (F)     (DEG/KT/KT) (MB)    (FT/S) (FT/S)
BRANDYWINE LGT   0000   29 35  310/ 21/ 27 1024.6R
CAPE MAY NJ      0000   29 33              1024.0R
LEWES DE         0000   29 32  290/ 18/ 21 1024.6S
15NM E FENWICK I 0000   31 39              1024.1R   5/ 5
OCEAN-CITY-INLET 0000   29 37  310/ 11/ 14 1024.8R
WACHAPREAGUE VA  0000   29 34  300/  1/  4 1025.6F
THOMAS POINT MD  0000   31 34  280/  6/  7 1026.8R
GOOSES REEF MD   0000   32     VRB  6/  8  1024.8R
COVE POINT MD    0000   30     320/  4/  6 1025.5S
SOLOMONS ISLAND  0000      36                N/A
BISHOPS HEAD MD  0000   28 31  320/  3/  5 1025.2R
PINEY POINT MD   0000           20/  2/  3   N/A
POTOMAC MD       0000   33     350/  8/  8 1024.8S
CAMBRIDGE MD     0000   30 33  260/  4/  5 1025.4S
LEWISETTA VA     0000   30 35     CALM     1025.4F
RAPPAHANNOCK LGT 0000          300/ 11/ 11 1026.1F
STINGRAY PT      0000   35     320/  4/  4 1026.0S
YORK RVR RNG VA  0000   37     340/  3/  4 1025.1R
YORKTOWN VA      0000   33 38  220/  2/  4 1025.6R
JAMESTOWN VA     0000   36     240/  4/  4   N/A
DOMINION TERM VA 0000   38     330/  3/  5 1025.9S
KIPTOPEKE VA     0000      40  320/  8/ 10   N/A
CHES BAY BRIDGE  0000   37 38  290/  5/  6 1025.5S
CAPE HENRY VA    0000   36     290/  7/  8 1024.6S
CHESAPEAKE LGHT  2300   36     300/ 13/ 15 1026.3R
WILLOUBY STN VA  0000   37     310/  5/  5 1026.3S
S CRANEY ISL VA  0000           CALM  /  2 1026.0S
CAPE HENRY BUOY  0000      41                N/A     3/ 8
1ST LANDING BUOY 0000   37     320/  8/ 10 1025.4S
CAPE CHARLES BUO 0000      40                N/A     2/ 8   2/ 8
OFFSHORE WE BUOY 0000      43                N/A     5/ 6   3/ 6
64NM E OF VA BCH 0000   38 48  320/ 23/ 27 1024.7R   9/ 9   3/ 9
DUCK PIER NC     0000   36 40  270/  6/  7 1025.7R
44100 DUCK FRF   0000      43                N/A     5/ 9   2/11
44056 DUCK FRF   0000      41                N/A     4/ 8   2/11
OREGON INLET NC  0000   37 40  280/  6/  9 1026.8R
HATTERAS NC      0000   40 41  290/  8/  9 1027.4S


USA.gov is the U.S. government's official web portal to all federal, state and local government web resources and services.